Find Yaogan 36 02 zu 01 xing

NORAD ID: 54042 Int'l Des: 2022-133 Owner: ZZB Country: CN Constellation: yaogan operational
LEOCIRCULAR

Live Position

Loading 3D Globe...

About Yaogan 36 02 zu 01 xing

Description loading...

Upcoming Passes

Passes for default location (London). Set your location on the main map for personalized predictions.

Altitude History

Loading altitude history...

Two-Line Element Set

1 54042U 22133A 26104.59721597 .00005668 00000-0 23623-3 0 9998
2 54042 35.0056 159.6699 0028590 341.1827 18.7830 15.22687215195057
Epoch: Apr 14, 2026 • Age: 8 hours

Current Status

Altitude 514.5 km
Velocity 7.60 km/s
Sub-Earth Point 20.24°N, 120.36°E
Launch Date Oct 14, 2022
Age 3.4 years
Type military

Technical Details

Classification Payload
Mass 300.00 kg
Dry Mass 300.00 kg
Total Mass 300.00 kg
Length 2.50 m
Diameter 2.50 m
Span 5.00 m
Shape Box + 2 Pan
Manufacturer DFHZ
Phase Status In Orbit
Owner/State ZZB/CN

Most Searched